IR1CH-3 Weather Reports


Display with metric or nautical units.
time (UTC)temp
F
wind
direction
speed
MPH
gust
MPH
rain 1hr
in
rain 24hr
in
rain mn
in
humidity
%
barometer
mb
20260507234122 59 0.0 0.0 0.00 0.00 0.00 99 1014.4
20260507231122 59 0.0 0.0 0.00 0.00 0.00 99 1014.8
20260507224122 59 0.0 0.0 0.00 0.00 0.00 99 1014.9
20260507221121 60 0.0 0.0 0.00 0.00 0.00 99 1014.9
20260507214121 60 0.0 0.0 0.00 0.00 0.00 99 1014.8
20260507211121 60 0.0 0.0 0.00 0.00 0.00 99 1014.7
20260507204120 60 0.0 0.0 0.00 0.00 0.00 99 1014.5
20260507201120 62 0.0 0.0 0.00 0.00 0.00 99 1014.6
20260507194120 62 0.0 0.0 0.00 0.00 0.00 99 1014.3
20260507191119 62 0.0 0.0 0.00 0.00 0.00 99 1014.1
20260507184119 63 0.0 0.0 0.00 0.00 0.00 99 1013.9
20260507181119 64 0.0 0.0 0.00 0.00 0.00 97 1013.8
20260507174118 65 0.0 0.0 0.00 0.00 0.00 96 1013.7
20260507171118 64 0.0 0.0 0.00 0.00 0.00 96 1013.9
20260507164118 63 0.0 0.0 0.00 0.00 0.00 97 1013.8
20260507161117 66 0.0 0.0 0.00 0.00 0.00 90 1013.4
20260507154117 63 0.0 0.0 0.00 0.00 0.00 98 1013.8
20260507151117 65 0.0 0.0 0.00 0.00 0.00 90 1013.4
20260507144116 66 0.0 0.0 0.00 0.00 0.00 88 1013.5
20260507141116 66 0.0 0.0 0.00 0.00 0.00 82 1013.3
20260507134116 66 0.0 0.0 0.00 0.00 0.00 86 1013.7
20260507131115 66 0.0 0.0 0.00 0.00 0.00 87 1013.8
20260507124115 67 0.0 0.0 0.00 0.00 0.00 85 1013.5
20260507121115 67 0.0 0.0 0.00 0.00 0.00 81 1013.2
20260507114114 67 0.0 0.0 0.00 0.00 0.00 84 1013.4
20260507111114 68 0.0 0.0 0.00 0.00 0.00 84 1013.7
20260507104114 68 0.0 0.0 0.00 0.00 0.00 83 1013.5
20260507101113 67 0.0 0.0 0.00 0.00 0.00 86 1013.6
20260507094113 66 0.0 0.0 0.00 0.00 0.00 93 1013.5
20260507091113 66 0.0 0.0 0.00 0.00 0.00 85 1013.0
20260507084112 66 0.0 0.0 0.00 0.00 0.00 85 1012.9
20260507081112 65 0.0 0.0 0.00 0.00 0.00 83 1012.5
20260507074112 63 0.0 0.0 0.00 0.00 0.00 82 1012.3
20260507071112 63 0.0 0.0 0.00 0.00 0.00 86 1012.6
20260507064111 62 0.0 0.0 0.00 0.00 0.00 91 1012.5
20260507061111 62 0.0 0.0 0.00 0.00 0.00 88 1012.2
20260507054111 61 0.0 0.0 0.00 0.00 0.00 87 1012.0
20260507051110 57 0.0 0.0 0.00 0.00 0.00 98 1011.8
20260507044110 56 0.0 0.0 0.00 0.00 0.00 99 1011.7
20260507041110 56 0.0 0.0 0.00 0.00 0.00 99 1011.6
20260507034109 56 0.0 0.0 0.00 0.00 0.00 99 1011.4
20260507031109 56 0.0 0.0 0.00 0.00 0.00 99 1011.4
20260507024109 57 0.0 0.0 0.00 0.00 0.00 99 1011.3
20260507021108 57 0.0 0.0 0.00 0.00 0.00 99 1011.2
20260507014108 57 0.0 0.0 0.00 0.00 0.00 99 1011.2
20260507011107 57 0.0 0.0 0.00 0.00 0.00 99 1011.2
20260507004107 57 0.0 0.0 0.00 0.00 0.00 99 1011.4
20260507001107 57 0.0 0.0 0.00 0.00 0.00 99 1011.2